STARLINK-32175, 60339

Orbit data source: Space-Track

STARLINK-32175, 60339 is a payload satellite owned by SpaceX/Seattle (US) in LEO that was launched on Fri, 02 Aug 2024 UTC via an FALCON 9 launch vehicle from the Air Force Eastern Test Range (AFETR). Payload-class satellites include a variety of spacecraft equipped with specific instruments for various scientific and technological missions. These include communications satellites like Starlink; space stations such as the ISS; scientific satellites like the Hubble; Earth observation satellites from companies like Planet Labs, Umbra, and HawkEye 360; GPS; miniature CubeSats for education and research; and military/defense satellites.

Loading next visibility...
Identifier
60339, 2024-136L
Orbit
LEO
Last TLE update
5 hours ago
Origin
Manufacturer
SpaceX/Seattle
Mission
Operational Commercial Communications
Bus & Motor
STARLINK V2M, Unknown motor
Mass
730 kg wet, ~700 kg dry
Launch date (UTC)
2024-08-02 (11 months ago)
Launch vehicle
FALCON 9
Launch site
Air Force Eastern Test Range (AFETR)
Object type
Payload
Rocket body
Debris
Shape & HBR
Box + 2 Pan, 29 m
Radar Cross Section
33.884 m², Large (>1 m²)

Expand to show TLE details & history

TLE from 5 hours ago
0 STARLINK-32175
1 60339U 24136L   25182.22462529  .00000068  00000-0  14422-4 0  9998
2 60339  53.1595 163.7317 0001205  84.1159 275.9979 15.30195249 52335
Epoch: 2025-07-01T05:23Z
TLE epoch observation values (Epoch: 2025-07-01T05:23:27.625Z)
Latitude
-0.00001°
Longitude
163.34345°
Altitude
476.043 km
Speed
7.629 km/s
True Right ascension
10h 54m 55s
True Declination
0° 00' 00"
Sunlit
Object was in daylight at epoch
Visualization orbit readout
Latitude
-16.90328°
Longitude
149.36494°
Altitude
480.042 km
Speed
7.626 km/s
Apparent Right ascension
09h 50m 13s
Apparent Declination
-27° 51' 39"
Sunlit
Object is in daylight
Visualization observer readout
Local Sidereal Time
21:38:27
Azimuth
347.699° N
Elevation
-77.702°
Doppler factor
1
Orbital elements
Apogee altitude
476.312 km
Perigee altitude
474.66 km
Semi-major axis
6,853.623 km
Eccentricity
0.00012
Inclination
53.1595°
RAAN
163.7317°
Arg. of periapsis
84.1159°
True anomaly
Unknown
Mean anomaly
275.9979°
Eccentric anomaly
Unknown
Mean motion
3.82528 °/min
Orbital period
94.11 mins
BSTAR
0.000014422
Loading maneuver chart data...
Loading SW <> Apogee altitude chart data...
Loading historical data...
Loading historical data...
Loading historical data...
Loading historical data...
Loading historical data...
Loading historical data...
Loading historical data...

STARLINK-32175 Visibility forecast

Observer location: undefined°, undefined°

Span
Click to sort rows by Start time (UTC) header in descending order
Start Az.
Max El. time (UTC)
Max El. Az.
Max El.
End time (UTC)
End Az.
5 mins2025-07-02 00:21:05.067Z172.24° S2025-07-02 00:23:05.067Z138.185° SSE17.491°2025-07-02 00:26:05.067Z83.261° E
5 mins2025-07-02 01:59:05.067Z256.91° W2025-07-02 02:01:05.067Z320.026° NNW37.497°2025-07-02 02:04:05.067Z38.371° NE
5 mins2025-07-02 06:55:05.067Z332.265° NNW2025-07-02 06:58:05.067Z27.838° NE21.076°2025-07-02 07:00:05.067Z69.596° E
5 mins2025-07-02 08:34:05.067Z296.188° NW2025-07-02 08:36:05.067Z230.459° WSW40.463°2025-07-02 08:39:05.067Z146.401° SSE
|